Tracking 32954 objects as of 19-Jan-2026
HD Live streaming from Space Station
objects crossing your sky now

SS 1

Track SS 1 now!
10-day predictions
SS 1 is classified as:


NORAD ID: 10529
Int'l Code: 1977-112D
Perigee: 547.8 km
Apogee: 1,322.7 km
Inclination: 63.3 °
Period: 103.6 minutes
Semi major axis: 7306 km
RCS: Unknown
Launch date: December 8, 1977
Source: United States (US)
Launch site: AIR FORCE WESTERN TEST RANGE (AFWTR)
Your satellite tracking list
Your tracking list is empty




NASA's NSSDC Master Catalog

Two Line Element Set (TLE):
1 10529U 77112D   26019.34123355  .00000350  00000-0  12447-3 0  9998
2 10529  63.3366  52.5055 0530325 160.4108 201.8195 13.90147370331509
Source of the keplerian elements: McCants